Location: Forli
(44.2227°N, 12.0407°E)
Time: 10:50:31
(UTC+01:00)

ISS - Pass Details

Date: 21 February 2026
Orbit: 416 x 426 km, 51.6° (Epoch: 10 March)

Event Time Altitude Azimuth Distance (km) Brightness Sun altitude
Exits shadow 05:46:00 19° 319° (NW) 1,070 -2.1 -14.4°
Maximum altitude 05:47:16 24° 353° (N) 925 -2.1 -14.2°
Drops below altitude 10° 05:50:03 10° 49° (NE) 1,495 -0.3 -13.7°
Sets 05:52:25 0° 64° (ENE) 2,358 1.2 -13.2°
